This is the latest recevied weather packets stored in our database for station/object IU5GBO-13. If no packets are shown the sender has not sent any weather packets the latest 10 day(s).
| Time | Temp. | Humidity | Pressure | Rain* | Wind** | Luminosity | Snow |
|---|---|---|---|---|---|---|---|
| 1778062580 | 18.33° C | 77% | 1013.2 hPa | - | - | - | - |
| 1778061980 | 18.33° C | 76% | 1013.1 hPa | - | - | - | - |
| 1778061379 | 18.33° C | 74% | 1013.3 hPa | - | - | - | - |
| 1778060779 | 18.89° C | 74% | 1013.2 hPa | - | - | - | - |
| 1778060179 | 18.33° C | 73% | 1013.1 hPa | - | - | - | - |
| 1778059580 | 18.89° C | 72% | 1013 hPa | - | - | - | - |
| 1778058980 | 18.89° C | 71% | 1013 hPa | - | - | - | - |
| 1778058379 | 18.89° C | 73% | 1013 hPa | - | - | - | - |
| 1778057780 | 17.78° C | 76% | 1012.9 hPa | - | - | - | - |
| 1778057180 | 17.22° C | 76% | 1012.9 hPa | - | - | - | - |
| 1778056580 | 17.22° C | 77% | 1012.7 hPa | - | - | - | - |
| 1778055979 | 17.22° C | 77% | 1012.6 hPa | - | - | - | - |
| 1778055380 | 17.22° C | 76% | 1012.6 hPa | - | - | - | - |
| 1778054779 | 17.22° C | 74% | 1012.5 hPa | - | - | - | - |
| 1778054179 | 17.22° C | 74% | 1012.5 hPa | - | - | - | - |
| 1778053579 | 17.22° C | 75% | 1012.5 hPa | - | - | - | - |
| 1778052980 | 17.22° C | 75% | 1012.5 hPa | - | - | - | - |
| 1778052379 | 17.22° C | 74% | 1012.5 hPa | - | - | - | - |
| 1778051780 | 17.22° C | 75% | 1012.4 hPa | - | - | - | - |
| 1778051180 | 16.67° C | 78% | 1012.5 hPa | - | - | - | - |
| 1778050580 | 16.67° C | 80% | 1012.5 hPa | - | - | - | - |
| 1778049980 | 16.67° C | 79% | 1012.6 hPa | - | - | - | - |
| 1778049379 | 16.67° C | 78% | 1012.6 hPa | - | - | - | - |
| 1778048780 | 16.67° C | 76% | 1012.6 hPa | - | - | - | - |
| 1778048180 | 16.67° C | 76% | 1012.4 hPa | - | - | - | - |
* Rain since midnight (hover to see other rain measurements)
** Current wind speed in m/s (hover to see current wind gust speed)